This is the latest recevied weather packets stored in our database for station/object N0QWM. If no packets are shown the sender has not sent any weather packets the latest 10 day(s).
| Time | Temp. | Humidity | Pressure | Rain* | Wind** | Luminosity | Snow |
|---|---|---|---|---|---|---|---|
| 1778252517 | 17.22° C | 69% | 1022.6 hPa | 0 mm | - | 329 W/m² | - |
| 1778252212 | 17.22° C | 71% | 1022.6 hPa | 0 mm | - | 178 W/m² | - |
| 1778251909 | 16.67° C | 73% | 1022.7 hPa | 0 mm | - | 258 W/m² | - |
| 1778251304 | 17.22° C | 70% | 1023 hPa | 0 mm | - | 161 W/m² | - |
| 1778251001 | 16.67° C | 72% | 1023 hPa | 0 mm | - | 501 W/m² | - |
| 1778250698 | 17.22° C | 73% | 1023 hPa | 0 mm | - | 177 W/m² | - |
| 1778250394 | 17.22° C | 74% | 1022.9 hPa | 0 mm | - | 386 W/m² | - |
| 1778250091 | 16.67° C | 77% | 1023.1 hPa | 0 mm | - | 210 W/m² | - |
| 1778249788 | 16.67° C | 74% | 1023 hPa | 0 mm | - | 288 W/m² | - |
| 1778249486 | 16.67° C | 77% | 1023.1 hPa | 0 mm | - | 254 W/m² | - |
| 1778249183 | 16.11° C | 78% | 1023.1 hPa | 0 mm | - | 445 W/m² | - |
| 1778248879 | 16.11° C | 80% | 1023.1 hPa | 0 mm | - | 180 W/m² | - |
| 1778248574 | 16.11° C | 77% | 1023.3 hPa | 0 mm | - | 147 W/m² | - |
| 1778248271 | 16.11° C | 80% | 1023.2 hPa | 0 mm | - | 147 W/m² | - |
| 1778247968 | 16.11° C | 78% | 1023.2 hPa | 0 mm | - | 133 W/m² | - |
| 1778247665 | 16.11° C | 82% | 1023.4 hPa | 0 mm | - | 167 W/m² | - |
| 1778247362 | 15.56° C | 81% | 1023.2 hPa | 0 mm | - | 151 W/m² | - |
| 1778247059 | 15.56° C | 87% | 1023.5 hPa | 0 mm | - | 157 W/m² | - |
| 1778246757 | 15.56° C | 83% | 1023.3 hPa | 0 mm | - | 168 W/m² | - |
| 1778246453 | 15° C | 90% | 1023.1 hPa | 0 mm | - | 162 W/m² | - |
| 1778246149 | 15° C | 91% | 1023.4 hPa | 0 mm | - | 145 W/m² | - |
| 1778245846 | 14.44° C | 93% | 1023 hPa | 0 mm | - | 143 W/m² | - |
| 1778245543 | 14.44° C | 94% | 1023.2 hPa | 0 mm | - | 138 W/m² | - |
| 1778245239 | 14.44° C | 94% | 1023.3 hPa | 0 mm | - | 129 W/m² | - |
| 1778244935 | 14.44° C | 93% | 1023.1 hPa | 0 mm | - | 127 W/m² | - |
* Rain latest hour (hover to see other rain measurements)
** Current wind speed in m/s (hover to see current wind gust speed)